Location: ČR
(50.0000°N, 15.0000°E)
Time: 16:39:38
(UTC+00:00)

Envisat - Pass Details

Date: 29 September 2021
Orbit: 764 x 766 km, 98.2° (Epoch: 22 October)

Event Time Altitude Azimuth Distance (km) Brightness Sun altitude
Rises 03:07:09 0° 25° (NNE) 3,243 6.9 -18.2°
Reaches altitude 10° 03:09:59 10° 40° (NE) 2,311 6.4 -17.8°
Maximum altitude 03:13:54 22° 91° (E) 1,634 5.6 -17.2°
Drops below altitude 10° 03:17:46 10° 141° (SE) 2,297 5.8 -16.6°
Sets 03:20:34 0° 156° (SSE) 3,218 6.3 -16.2°
